Hourly Data Report for February 13, 2021

KUGAARUK CLIMATE
NUNAVUT
Current Station Operator: ECCC - MSC

68°32'15.060" N
89°47'47.020" W
15.80 m
2303094
71407
NBB

Download Data

Hourly Data (February 2021)
Hourly Data Report for February 13, 2021
TIME
LST
Temp Definition
°C
Dew Point Definition
°C
Rel Hum Definition
%
Precip. Amount Definition
mm

Wind Dir Definition
10's deg

Wind Spd Definition
km/h
Visibility Definition
km
Stn Press Definition
kPa
Hmdx Definition


Wind Chill Definition


Weather Definition


00:00 -24.2 -27.0 77 0.0 24 35   102.14   -39 LegendNANA
01:00 -24.9 -27.7 78 0.0 25 49   102.04   -42 LegendNANA
02:00 -25.3 -28.1 77 0.0 23 34   102.12   -40 LegendNANA
03:00 -25.9 -29.0 76 0.0 26 41   102.07   -42 LegendNANA
04:00 -26.6 -29.5 76 0.0 25 51   101.95   -45 LegendNANA
05:00 -26.6 -29.5 76 0.0 24 49   101.98   -44 LegendNANA
06:00 -26.0 -28.9 76 0.0 25 48   101.98   -43 LegendNANA
07:00 -25.7 -28.6 76 0.0 24 39   101.95   -42 LegendNANA
08:00 -24.1 -27.2 75 0.0 24 46   101.87   -40 LegendNANA
09:00 -24.0 -27.1 76 0.0 24 52   101.82   -41 LegendNANA
10:00 -23.3 -26.6 74 0.0 24 48   101.76   -40 LegendNANA
11:00 -22.6 -26.3 72 0.0 24 49   101.71   -39 LegendNANA
12:00 -21.6 -25.4 71 0.0 24 40   101.76   -36 LegendNANA
13:00 -21.5 -24.6 76 0.0 24 27   101.74   -34 LegendNANA
14:00 -21.2 -24.5 75 0.0 22 30   101.72   -34 LegendNANA
15:00 -21.0 -24.6 73 0.0 22 35   101.66   -35 LegendNANA
16:00 -21.0 -24.4 74 0.0 22 40   101.59   -35 LegendNANA
17:00 -20.5 -23.7 75 0.0 23 34   101.52   -34 LegendNANA
18:00 -20.3 -23.7 74 0.0 25 37   101.44   -34 LegendNANA
19:00 -21.4 -24.6 76 0.0 25 35   101.39   -35 LegendNANA
20:00 -22.2 -25.1 77 0.0 24 50   101.24   -38 LegendNANA
21:00 -22.9 -25.8 77 0.0 23 45   101.22   -39 LegendNANA
22:00 -22.2 -25.1 77 0.0 24 48   101.18   -38 LegendNANA
23:00 -22.3 -25.3 77 0.0 23 48   101.09   -38 LegendNANA

Notes on Data Quality.

Legend

  • E = Estimated
  • M = Missing
  • NA = Not Available*
  • [empty] = Indicates an unobserved value
Date modified: